This demonstration page uses our WeatherBlox Daily Observations layout. Learn more.

41.55636, -103.73856

Hourly Observations for October 21, 2019

Temp ( °F °C ) Dew Point ( °F °C ) Humidity (%) Winds ( mph kmh ) Pressure ( in mb ) Visibility ( mi km ) Precip ( " mm )
12:58 am 00:58 Mostly Cloudy 36 2.2 33 0.5 89 89 NW 32 52 29.81 1010 10 16.0934 0 0
1:58 am 01:58 Windy with Rain Showers Likely 37 2.9 33 0.3 83 83 NW 31 50 29.83 1010 10 16.0934 0 0
2:58 am 02:58 Mostly Cloudy 38 3.3 32 -0.1 79 79 NW 25 41 29.86 1011 10 16.0934 0 0
3:58 am 03:58 Mostly Cloudy 37 2.9 31 -0.3 80 80 WNW 17 28 29.88 1012 10 16.0934 0 0
4:58 am 04:58 Mostly Cloudy 36 2.2 31 -0.8 81 81 NW 25 41 29.87 1012 10 16.0934 0 0
5:58 am 05:58 Partly Cloudy 35 1.5 30 -1 84 84 NW 20 31 29.89 1012 10 16.0934 0 0
6:58 am 06:58 Clear 35 1.4 30 -1.2 83 83 WNW 20 31 29.89 1012 10 16.0934 0 0
7:58 am 07:58 Clear 33 0.8 29 -1.7 84 84 NW 20 31 29.91 1013 10 16.0934 0 0
8:58 am 08:58 Clear 33 0.7 28 -2.2 81 81 NW 23 37 29.89 1012 10 16.0934 0 0
9:58 am 09:58 Clear 32 0.2 27 -2.6 82 82 NW 17 28 29.94 1014 10 16.0934 0 0
10:58 am 10:58 Clear 31 -0.7 26 -3.3 83 83 NW 13 20 29.96 1015 10 16.0934 0 0
11:58 am 11:58 Clear 30 -1.2 25 -3.9 82 82 WNW 13 20 29.97 1015 10 16.0934 0 0
12:58 pm 12:58 Clear 29 -1.8 25 -4 85 85 NW 13 20 29.98 1015 10 16.0934 0 0
1:58 pm 13:58 Sunny 29 -1.4 25 -3.8 84 84 WNW 15 24 29.98 1015 10 16.0934 0 0
2:58 pm 14:58 Mostly Sunny 33 0.3 27 -3 79 79 NW 13 20 30 1016 10 16.0934 0 0
3:58 pm 15:58 Sunny 37 2.7 26 -3.3 65 65 NW 21 33 30 1016 10 16.0934 0 0
4:58 pm 16:58 Sunny 41 5.1 27 -2.9 57 57 NW 23 37 29.98 1015 10 16.0934 0 0
5:58 pm 17:58 Partly Cloudy 44 6.7 24 -4.2 46 46 NNW 28 44 29.98 1015 10 16.0934 0 0
6:58 pm 18:58 Mostly Cloudy 45 7.1 23 -5.2 42 42 NNW 25 41 29.98 1015 10 16.0934 0 0
7:58 pm 19:58 Mostly Cloudy 45 7.1 19 -7.4 35 35 NNW 25 41 29.98 1015 10 16.0934 0 0
8:58 pm 20:58 Mostly Cloudy 45 7.4 21 -6 38 38 N 17 28 29.99 1016 10 16.0934 0 0
9:58 pm 21:58 Mostly Cloudy 44 6.9 22 -5.7 41 41 NNW 23 37 30.01 1016 10 16.0934 0 0
10:58 pm 22:58 Cloudy 45 7.3 18 -7.7 34 34 NNW 24 39 30.06 1018 10 16.0934 0 0
11:58 pm 23:58 Mostly Cloudy 43 6.3 21 -6.3 40 40 NNW 15 24 30.09 1019 10 16.0934 0 0

Powered by AerisWeather